Poplar Bluff, MO

1:42 AM CDT on September 20, 2017 (GMT -0500)
Poplar Bluff Municipal

Weather History for KPOF - December, 2011

Change the Weather History Date:

Wednesday, December 21, 2011

  Actual Average Record
Temperature  
Mean Temperature 50 °F -  
Max Temperature 55 °F 46 °F 68 °F (1949)
Min Temperature 44 °F 27 °F 3 °F (1929)
Degree Days  
Heating Degree Days 16    
Moisture  
Dew Point 41 °F    
Average Humidity 77    
Maximum Humidity 100    
Minimum Humidity 68    
Precipitation  
Precipitation 0.00 in - - ()
Sea Level Pressure  
Sea Level Pressure 29.88 in    
Wind  
Wind Speed 8 mph (SW)    
Max Wind Speed 13 mph    
Max Gust Speed -    
Visibility 6 miles    
Events      
Averages and records for this station are not official NWS values.
T = Trace of Precipitation, MM = Missing Value Source: NWS Daily Summary

Daily Weather History Graph

Daily Weather History Graph

Search for Another Location

Airport or City:

Trip Planner

Search our weather history database for the weather conditions in past years. The results will help you decide how hot, cold, wet, or windy it might be!

Date:

Astronomy

Dec. 21, 2011 Rise Set
Actual Time 7:10 AM CST 4:48 PM CST
Civil Twilight 6:41 AM CST 5:17 PM CST
Nautical Twilight 6:08 AM CST 5:50 PM CST
Astronomical Twilight 5:37 AM CST 6:21 PM CST
Moon 3:44 AM CST (12/21) 2:06 PM CST (12/21)
Length of Visible Light 10h 36m
Length of Day
9h 38m
Waning Crescent, 12% of the Moon is Illuminated
Dec 21
Waning Crescent
Dec 24
New
Jan 1
First Quarter
Jan 9
Full
Jan 16
Last Quarter

Hourly Weather History & Observations

Time (CST) Temp. Windchill Dew Point Humidity Pressure Visibility Wind Dir Wind Speed Gust Speed Precip Events Conditions
12:15 AM 55.4 °F - 55.4 °F 100% 29.73 in 7.0 mi SW 10.4 mph - N/A   Overcast
12:46 AM 55.4 °F - 53.6 °F 94% 29.74 in 8.0 mi SW 9.2 mph - N/A   Mostly Cloudy
12:53 AM 55.9 °F - 53.1 °F 90% 29.74 in 8.0 mi SW 9.2 mph - N/A   Mostly Cloudy
1:53 AM 54.0 °F - 48.9 °F 83% 29.74 in 6.0 mi SW 12.7 mph - N/A   Haze
2:51 AM 48.2 °F - 42.8 °F 82% 29.76 in 2.5 mi WSW 9.2 mph - N/A   Haze
2:53 AM 48.9 °F - 43.0 °F 80% 29.77 in 2.0 mi WSW 9.2 mph - N/A   Haze
3:27 AM 46.4 °F 42.4 °F 41.0 °F 81% 29.78 in 4.0 mi WSW 8.1 mph - N/A   Haze
3:53 AM 46.9 °F - 39.0 °F 74% 29.78 in 4.0 mi SW 8.1 mph - N/A   Haze
4:41 AM 46.4 °F 42.4 °F 39.2 °F 76% 29.79 in 4.0 mi SW 8.1 mph - N/A   Haze
4:53 AM 46.0 °F 41.0 °F 39.0 °F 76% 29.80 in 6.0 mi SW 10.4 mph - N/A   Haze
5:48 AM 44.6 °F 41.4 °F 39.2 °F 81% 29.81 in 10.0 mi SW 5.8 mph - N/A   Scattered Clouds
5:53 AM 45.0 °F 41.2 °F 39.0 °F 80% 29.82 in 10.0 mi SW 6.9 mph - N/A   Mostly Cloudy
7:53 AM 46.0 °F 42.5 °F 39.9 °F 79% 29.88 in 10.0 mi SW 6.9 mph - N/A   Overcast
8:53 AM 46.0 °F 41.4 °F 41.0 °F 83% 29.91 in 10.0 mi SW 9.2 mph - N/A   Overcast
9:53 AM 46.9 °F - 42.1 °F 83% 29.93 in 10.0 mi SW 5.8 mph - N/A   Overcast
10:10 AM 48.2 °F - 39.2 °F 71% 29.93 in 1.8 mi West 8.1 mph - N/A   Haze
10:53 AM 48.9 °F - 39.0 °F 69% 29.93 in 1.0 mi West 11.5 mph - N/A   Haze
11:09 AM 48.2 °F - 39.2 °F 71% 29.93 in 0.8 mi West 9.2 mph - N/A   Haze
11:28 AM 48.2 °F - 39.2 °F 71% 29.92 in 1.2 mi WSW 10.4 mph - N/A   Haze
12:06 PM 48.2 °F - 39.2 °F 71% 29.92 in 1.5 mi SW 9.2 mph - N/A   Haze
12:14 PM 48.2 °F - 39.2 °F 71% 29.92 in 3.0 mi WSW 9.2 mph - N/A   Haze
12:18 PM 48.2 °F - 39.2 °F 71% 29.92 in 1.8 mi WSW 9.2 mph - N/A   Haze
12:38 PM 48.2 °F - 39.2 °F 71% 29.91 in 3.0 mi SW 9.2 mph - N/A   Haze
12:53 PM 48.9 °F - 39.9 °F 71% 29.92 in 3.0 mi SW 9.2 mph - N/A   Haze
1:53 PM 48.9 °F - 39.0 °F 69% 29.91 in 10.0 mi SW 9.2 mph - N/A   Overcast
2:53 PM 46.9 °F - 37.9 °F 71% 29.92 in 10.0 mi SW 12.7 mph - N/A   Overcast
3:53 PM 46.9 °F - 37.0 °F 68% 29.93 in 10.0 mi SW 8.1 mph - N/A   Overcast
4:53 PM 46.9 °F - 37.9 °F 71% 29.94 in 10.0 mi WSW 8.1 mph - N/A   Overcast
5:53 PM 46.0 °F - 37.9 °F 73% 29.96 in 10.0 mi Calm Calm - N/A   Overcast
6:53 PM 46.0 °F - 37.9 °F 73% 29.97 in 10.0 mi Calm Calm - N/A   Overcast
7:53 PM 45.0 °F - 39.9 °F 82% 29.98 in 10.0 mi Calm Calm - N/A   Overcast
8:53 PM 45.0 °F - 39.9 °F 82% 29.98 in 10.0 mi Calm Calm - N/A   Overcast
9:53 PM 45.0 °F - 39.9 °F 82% 30.01 in 10.0 mi Calm Calm - N/A   Overcast
10:53 PM 46.0 °F - 39.9 °F 79% 30.01 in 10.0 mi Calm Calm - N/A   Overcast
11:53 PM 46.0 °F 44.8 °F 41.0 °F 83% 30.03 in 10.0 mi SSW 3.5 mph - N/A   Overcast